Tongxin Jishu Shiyan 14

operational
NORAD ID: 62804 Int'l Des: 2025-017 Owner: ZLZB Country: CN
HEOCIRCULARGSO

About Tongxin Jishu Shiyan 14

Description loading...

Live Position

Loading 3D Globe...

Upcoming Passes

Altitude History

Altitude vs Time

uPlot chart will show altitude changes over time

Two-Line Element Set

1 62804U 25017A 25311.25066984 .00000122 00000-0 00000-0 0 9992
2 62804 1.3165 286.9503 0004187 352.1770 236.2443 1.00274266 3045
Epoch: Nov 7, 2025 • Age: 10 hours

Current Status

Altitude 35770.2 km
Velocity 3.08 km/s
Sub-Earth Point 0.54°N, 18.42°E
Launch Date Jan 23, 2025
Age 0.7 years
Type other

Technical Details

Classification Payload
Mass 5000.00 kg
Dry Mass 2500.00 kg
Total Mass 5000.00 kg
Length 5.00 m
Diameter 2.50 m
Span 30.00 m
Shape Box + 2 Pan
Manufacturer SISE
Bus Type FY-4
Phase Status In Orbit
Owner/State ZLZB/CN

Large Constellations

Loading constellations...